Regional Weather Roundup
Issued by NWS

Home | Current Version | Previous Version | Text Only | Print | Product List | Glossary On
Versions: 1 2 3 4 5 6 7 8 9 10 11 12 13 14 15 16 17 18 19 20 21 22 23 24 25 26 27 28 29 30 31 32 33 34 35 36 37 38 39 40 41 42 43 44 45 46 47 48 49 50
455
ASUS43 KBIS 250810
RWRND

NORTH DAKOTA REGIONAL WEATHER ROUNDUP
NATIONAL WEATHER SERVICE BISMARCK ND
200 AM CST SAT NOV 25 2017

NOTE: "FAIR" INDICATES FEW OR NO CLOUDS BELOW 12,000 FEET WITH NO
SIGNIFICANT WEATHER AND/OR OBSTRUCTIONS TO VISIBILITY.


NDZ001>003-009>011-017-250900-
NORTHWEST NORTH DAKOTA

CITY           SKY/WX    TMP DP  RH WIND       PRES   REMARKS
WILLISTON      CLEAR     31  24  75 W5        29.94R
MINOT          CLEAR     28  25  88 W5        29.90S
MINOT AFB      CLEAR     23  21  93 W6        29.90S WCI  16
$$

NDZ018>021-031>035-040>046-250900-
SOUTHWEST NORTH DAKOTA

CITY           SKY/WX    TMP DP  RH WIND       PRES   REMARKS
BISMARCK       CLEAR     32  27  81 W5        29.95R
DICKINSON      CLOUDY    32  25  75 W12       29.94R
GARRISON         N/A     27  25  92 N6        29.92R
HETTINGER ARPT CLOUDY    27  22  81 NW7       30.00R WCI  19
$$

NDZ004>008-012>016-024-026-027-054-250900-
NORTHEAST NORTH DAKOTA

CITY           SKY/WX    TMP DP  RH WIND       PRES   REMARKS
GRAND FORKS    CLOUDY    26  20  77 N16       29.94R WCI  14
GRND FRKS AFB  CLOUDY    25  19  77 NE10      29.93R WCI  15
DEVILS LAKE    PTCLDY    28  25  88 N8        29.91R WCI  20
$$

NDZ022-023-025-028>030-036>039-047>053-250900-
SOUTHEAST NORTH DAKOTA

CITY           SKY/WX    TMP DP  RH WIND       PRES   REMARKS
FARGO          CLEAR     28  25  88 N8        29.90R WCI  20
JAMESTOWN      CLEAR     30  28  92 W8        29.91R
$$





USA.gov is the U.S. government's official web portal to all federal, state and local government web resources and services.